Погода в Борке

Россия / Удмуртская Республика     56°26′00″N   53°53′50″E
темп.,
°C
ветер,
м/с
пор.,
м/с
влажн.,
%
обл.,
%
осадки,
мм/ч
давл.,
гПа
погр.,
м
13 мая, чт
чт1301:00+16юв11542 0.0 102711
04:00+15в11579 0.0 102710
07:00+19юв12485 0.0 1027138
10:00+25ююв23350 0.0 1026999
13:00+27ююз44240 0.0 10262173
16:00+27ююз45275 0.0 10262162
19:00+23ю22454 0.0 102535
22:00+18ююв22540 0.0 102511
14 мая, пт
пт1401:00+16юв22595 0.0 102529
04:00+15ююв23645 0.0 102542
07:00+19ююв26525 0.0 1025197
10:00+25ю353579 0.0 1025821
13:00+27ююз56305 0.0 10231501
16:00+28ююз56315 0.0 10231544
19:00+24ю394596 0.0 1021330
22:00+19ю3961100 0.0 1022168
15 мая, сб
сб1501:00+18ююз3126112 0.0 1021257
04:00+16ююз276454 0.0 1022138
07:00+20юз375535 0.0 1022264
10:00+25юз4638100 0.0 1022755
13:00+28юз5729100 0.0 10211171
16:00+29юз5829100 0.0 10201314
19:00+24ююз384793 0.0 1019196
22:00+19ююз310585 0.0 1019159
16 мая, вс
вс1601:00+18ююз26607 0.0 101996
04:00+16ю22615 0.0 101930
07:00+21ююз37500 0.0 1019204
10:00+27ююз47330 0.0 1019781
13:00+30юз58250 0.0 10182373
16:00+30юз58233 0.0 10173094
19:00+25юз2445100 0.0 101692
22:00+20ю345361 0.0 101670
17 мая, пн
пн1701:00+18ююз256496 0.1 101695
04:00+16юз297147 0.1 1017174
07:00+19зюз356588 0.0 1017211
10:00+24зюз3550100 0.0 1017756
13:00+28зюз59355 0.0 10171874
16:00+28зюз5113331 0.0 10162758
19:00+25зсз37495 0.0 1016276
22:00+19зсз2267100 0.0 101711